カタログに戻る

STARLINK-5212

運用中通信VLEO
NORAD 54075·PAYLOAD·🇺🇸 United States

打ち上げ Oct 20, 2022 から Cape Canaveral Space Force Station

Loading…

次のパス (今後24時間)

TLE

最新Source: CelesTrak SupGP

元期: Sep 14, 2026, 13:58 UTC

1 54075C 22136AA  26257.58243056 -.00005388  00000+0 -17329-3 0  2577
2 54075  53.1577 196.5503 0001350  94.3125 132.1815 15.31698713    19

AllMySatでSTARLINK-5212をリアルタイム追跡

Download on the App Store